Regional Weather Roundup
Issued by NWS

Home | Current Version | Previous Version | Graphics & Text | Print | Product List | Glossary On
Versions: 1 2 3 4 5 6 7 8 9 10 11 12 13 14 15 16 17 18 19 20 21 22 23 24 25 26 27 28 29 30 31 32 33 34 35 36 37 38 39 40 41 42 43 44 45 46 47 48 49 50
757
ASUS43 KBIS 232131
RWRND
NORTH DAKOTA REGIONAL WEATHER ROUNDUP
NATIONAL WEATHER SERVICE EASTERN NORTH DAKOTA/GRAND FORKS ND
400 PM CDT TUE MAY 23 2017

  NOTE: "FAIR" INDICATES FEW OR NO CLOUDS BELOW 12,000 FEET WITH NO
  SIGNIFICANT WEATHER AND/OR OBSTRUCTIONS TO VISIBILITY.

NDZ001>003-009>011-017-232200-
...NORTHWEST NORTH DAKOTA...

CITY           SKY/WX    TMP DP  RH WIND       PRES   REMARKS
WILLISTON      FAIR      72  32  23 S9        30.05F
MINOT          FAIR      68  33  27 NE12G20   30.03F
MINOT AFB      FAIR      67  33  27 NE10      30.02F
$$

NDZ018>021-031>035-040>046-232200-
...SOUTHWEST NORTH DAKOTA...

CITY           SKY/WX    TMP DP  RH WIND       PRES   REMARKS
BISMARCK       CLOUDY    64  34  32 N13       30.04F
DICKINSON      FAIR      63  32  31 NE8       30.05F
GARRISON         N/A     66  34  30 NE14G22   30.04F
HETTINGER      FAIR      65  33  30 N15G21    30.08F
$$

NDZ004>008-012>016-024-026-027-054-232200-
...NORTHEAST NORTH DAKOTA...

CITY           SKY/WX    TMP DP  RH WIND       PRES   REMARKS
GRAND FORKS    PTSUNNY   62  44  51 N18       29.97F
GRAND FORKS AF PTSUNNY   61  40  47 NE17G28   29.99S
DEVILS LAKE    CLOUDY    62  38  40 NE22      30.02F
$$

NDZ022-023-025-028>030-036>039-047>053-232200-
...SOUTHEAST NORTH DAKOTA...

CITY           SKY/WX    TMP DP  RH WIND       PRES   REMARKS
JAMESTOWN      CLOUDY    57  42  57 NE21      29.99F
FARGO          PTSUNNY   59  45  59 NE21G28   29.95S
WAHPETON       CLOUDY    57  45  62 N20G29    29.93R
$$




USA.gov is the U.S. government's official web portal to all federal, state and local government web resources and services.